Location: Lombard
(41.8800°N, 88.0080°W)
Time: 23:28:38
(UTC-05:00)

Tiros 1 - Pass Details

Date: 02 February 2023
Orbit: 628 x 662 km, 48.4° (Epoch: 20 March)

Event Time Altitude Azimuth Distance (km) Brightness Sun altitude
Rises 02:21:26 0° 268° (W) 2,912 - -51.7°
Reaches altitude 10° 02:23:51 10° 275° (W) 2,009 - -51.3°
Maximum altitude 02:28:15 43° 348° (NNW) 897 - -50.6°
Drops below altitude 10° 02:32:43 10° 60° (ENE) 2,031 - -49.9°
Sets 02:35:10 0° 67° (ENE) 2,947 - -49.4°
Exits shadow 02:35:12 - 67° (ENE) 2,961 11.2 -49.4°
